Weather History for Grand Rapids, MI

Change the Weather History Date:

Friday, November 1, 2013

  Actual Average Record
Temperature  
Mean Temperature 50 °F 46 °F  
Max Temperature 55 °F 54 °F 81 °F (1950)
Min Temperature 45 °F 37 °F 21 °F (1976)
Degree Days  
Heating Degree Days 15 19  
Month to date heating degree days 15 19  
Since 1 July heating degree days 529 611  
Cooling Degree Days 0 0  
Month to date cooling degree days 0 0  
Year to date cooling degree days 767 699  
Moisture  
Dew Point 44 °F    
Average Humidity 85    
Maximum Humidity 93    
Minimum Humidity 76    
Precipitation  
Precipitation 0.26 in 0.12 in 1.24 in (1982)
Month to date precipitation 0.26 0.12  
Year to date precipitation 39.29 32.38  
Snow  
Snow 0.00 in 0.10 in 1.30 in (1954)
Month to date snowfall 0.0 0.1  
Since 1 July snowfall T 0.6  
Since 1 September snowfall T 0.6  
Snow Depth 0.00 in    
Sea Level Pressure  
Sea Level Pressure 29.47 in    
Wind  
Wind Speed 15 mph (WSW)    
Max Wind Speed 33 mph    
Max Gust Speed 44 mph    
Visibility 7 miles    
Events Rain    
T = Trace of Precipitation, MM = Missing Value Source: NWS Daily Summary

Daily Weather History Graph

Daily Weather History Graph

Search for Another Location

Airport:

Trip Planner

Search our weather history database for the weather conditions in past years. The results will help you decide how hot, cold, wet, or windy it might be!

Date:

Astronomy

Nov. 01, 2013 Rise Set
Actual Time 8:16 AM EDT 6:34 PM EDT
Civil Twilight 7:47 AM EDT 7:03 PM EDT
Nautical Twilight 7:13 AM EDT 7:36 PM EDT
Astronomical Twilight 6:40 AM EDT 8:09 PM EDT
Moon 6:05 AM EDT (11/1) 5:28 PM EDT (11/1)
Length of Visible Light 11h 16m
Length of Day
10h 17m
Waning Crescent, 4% of the Moon is Illuminated
Nov 1
Waning Crescent
Nov 3
New
Nov 10
First Quarter
Nov 17
Full
Nov 25
Last Quarter

Hourly Weather History & Observations

Time (EDT) Temp. Windchill Dew Point Humidity Pressure Visibility Wind Dir Wind Speed Gust Speed Precip Events Conditions
12:03 AM 55.4 °F - 53.6 °F 94% 29.19 in 7.0 mi West 19.6 mph 24.2 mph 0.02 in Rain Light Rain
12:53 AM 55.0 °F - 51.1 °F 86% 29.18 in 10.0 mi WSW 15.0 mph 21.9 mph 0.03 in Rain Light Rain
1:03 AM 53.6 °F - 51.8 °F 94% 29.19 in 9.0 mi WSW 19.6 mph 26.5 mph 0.00 in Rain Light Rain
1:27 AM 51.8 °F - 48.2 °F 88% 29.20 in 4.0 mi West 21.9 mph 35.7 mph 0.00 in Rain Light Rain
1:35 AM 51.8 °F - 48.2 °F 88% 29.20 in 5.0 mi West 20.7 mph 33.4 mph 0.02 in Rain Rain
1:46 AM 51.8 °F - 48.2 °F 88% 29.21 in 5.0 mi West 21.9 mph 28.8 mph 0.03 in Rain Rain
1:53 AM 52.0 °F - 48.9 °F 89% 29.21 in 6.0 mi WSW 19.6 mph 28.8 mph 0.05 in Rain Rain
2:53 AM 50.0 °F - 46.9 °F 89% 29.25 in 10.0 mi WSW 24.2 mph 38.0 mph 0.06 in Rain Light Rain
3:46 AM 48.2 °F - 42.8 °F 82% 29.28 in 10.0 mi WSW 26.5 mph 41.4 mph 0.01 in   Overcast
3:53 AM 48.0 °F - 43.0 °F 83% 29.29 in 10.0 mi West 28.8 mph 39.1 mph 0.01 in   Overcast
4:30 AM 46.4 °F 37.2 °F 42.8 °F 87% 29.31 in 10.0 mi WSW 29.9 mph 40.3 mph N/A   Overcast
4:53 AM 46.9 °F - 42.1 °F 83% 29.32 in 10.0 mi WSW 23.0 mph 29.9 mph N/A   Overcast
5:53 AM 46.9 °F - 41.0 °F 80% 29.35 in 10.0 mi WSW 26.5 mph 36.8 mph N/A   Overcast
6:53 AM 46.9 °F - 39.9 °F 77% 29.39 in 10.0 mi WSW 24.2 mph 29.9 mph N/A   Overcast
7:53 AM 46.9 °F - 39.9 °F 77% 29.42 in 10.0 mi WSW 21.9 mph 27.6 mph N/A   Overcast
8:53 AM 46.9 °F - 39.0 °F 74% 29.46 in 10.0 mi WSW 20.7 mph 27.6 mph N/A   Overcast
9:53 AM 46.9 °F - 39.0 °F 74% 29.50 in 10.0 mi WSW 18.4 mph - N/A   Overcast
10:53 AM 46.9 °F - 39.9 °F 77% 29.51 in 8.0 mi WSW 18.4 mph - 0.00 in   Light Drizzle
11:53 AM 46.0 °F 40.2 °F 42.1 °F 86% 29.53 in 5.0 mi West 12.7 mph - 0.00 in Rain Light Rain
12:15 PM 46.4 °F 40.4 °F 42.8 °F 87% 29.54 in 4.0 mi WSW 13.8 mph - 0.00 in   Light Drizzle
12:53 PM 46.0 °F 40.2 °F 43.0 °F 89% 29.55 in 5.0 mi WSW 12.7 mph - 0.00 in   Light Drizzle
1:24 PM 46.4 °F 41.1 °F 42.8 °F 87% 29.55 in 7.0 mi WSW 11.5 mph - 0.00 in   Light Drizzle
1:53 PM 46.0 °F 40.2 °F 42.1 °F 86% 29.56 in 10.0 mi WSW 12.7 mph - 0.00 in   Overcast
2:53 PM 46.9 °F - 42.1 °F 83% 29.57 in 10.0 mi SW 9.2 mph - 0.00 in   Light Drizzle
3:53 PM 46.9 °F - 43.0 °F 86% 29.59 in 5.0 mi WSW 9.2 mph - 0.00 in Rain Light Rain
4:22 PM 46.4 °F 41.1 °F 42.8 °F 87% 29.58 in 2.0 mi WSW 11.5 mph - 0.00 in Rain Light Rain
4:24 PM 46.4 °F 41.1 °F 42.8 °F 87% 29.58 in 5.0 mi WSW 11.5 mph - 0.00 in   Light Drizzle
4:53 PM 46.9 °F - 43.0 °F 86% 29.60 in 10.0 mi WSW 10.4 mph - 0.00 in   Overcast
5:30 PM 46.4 °F 42.4 °F 42.8 °F 87% 29.60 in 3.0 mi WSW 8.1 mph - 0.00 in Rain Light Rain
5:53 PM 46.9 °F - 43.0 °F 86% 29.61 in 7.0 mi SW 9.2 mph - 0.00 in Rain Light Rain
6:53 PM 46.0 °F 41.4 °F 43.0 °F 89% 29.63 in 2.0 mi SW 9.2 mph - 0.00 in   Light Drizzle
7:37 PM 46.4 °F 42.4 °F 44.6 °F 93% 29.63 in 3.0 mi SW 8.1 mph - 0.00 in   Light Drizzle
7:53 PM 46.0 °F 42.5 °F 44.1 °F 93% 29.65 in 2.5 mi SW 6.9 mph - 0.01 in   Light Drizzle
8:12 PM 46.4 °F 41.9 °F 44.6 °F 93% 29.64 in 3.0 mi WSW 9.2 mph - 0.00 in   Light Drizzle
8:53 PM 46.9 °F - 44.1 °F 90% 29.65 in 7.0 mi WSW 9.2 mph - 0.01 in Rain Light Rain
9:53 PM 46.9 °F - 45.0 °F 93% 29.66 in 4.0 mi West 5.8 mph - 0.03 in Rain Light Rain
10:53 PM 46.9 °F - 44.1 °F 90% 29.67 in 9.0 mi West 5.8 mph - 0.04 in Rain Light Rain
11:53 PM 46.9 °F - 44.1 °F 90% 29.68 in 6.0 mi West 4.6 mph - 0.01 in Rain Light Rain